,,PA_Meas_PMT16A,,PR_Meas_QMR101_102,,RH_Meas_QMH101,,SR_Meas_QMS101,,TA_Meas_QMH101,,GenWind,,GenWind,
time,status,PA,status,PR,status,RH,status,SR,status,TA,status,DirAvg,status,SpdAvg,
2017-01-22, 14:40:04,VALID,919.534,VALID,0,INVALID,129.56,VALID,128.929,VALID,20.1544,VALID,145,VALID,2.29883,
2017-01-22, 14:41:04,VALID,919.52,VALID,0,INVALID,129.446,VALID,124.095,VALID,20.1544,VALID,156,VALID,2.59805,
2017-01-22, 14:42:04,VALID,919.526,VALID,0,INVALID,129.461,VALID,122.268,VALID,20.1708,VALID,152,VALID,2.33672,
2017-01-22, 14:43:04,VALID,919.54,VALID,0,INVALID,129.446,VALID,126.351,VALID,20.2098,VALID,148,VALID,2.09648,
2017-01-22, 14:44:04,VALID,919.548,VALID,0,INVALID,129.362,VALID,139.459,VALID,20.2309,VALID,154,VALID,2.28203,
2017-01-22, 14:45:04,VALID,919.541,VALID,0,INVALID,129.636,VALID,165.997,VALID,20.2489,VALID,152,VALID,1.8707,
2017-01-22, 14:46:04,VALID,919.549,VALID,0,INVALID,129.674,VALID,174.377,VALID,20.3269,VALID,152,VALID,2.58086,
2017-01-22, 14:47:04,VALID,919.541,VALID,0,INVALID,129.27,VALID,160.732,VALID,20.3074,VALID,154,VALID,3.23398,
2017-01-22, 14:48:04,VALID,919.563,VALID,0,INVALID,129.286,VALID,146.013,VALID,20.3269,VALID,155,VALID,2.30859,
2017-01-22, 14:49:04,VALID,919.592,VALID,0,INVALID,128.958,VALID,153.211,VALID,20.3074,VALID,145,VALID,2.99453,
2017-01-22, 14:50:04,VALID,919.577,VALID,0,INVALID,129.148,VALID,158.798,VALID,20.3464,VALID,141,VALID,1.94062,
2017-01-22, 14:51:04,VALID,919.564,VALID,0,INVALID,129.453,VALID,155.575,VALID,20.4049,VALID,147,VALID,1.81055,
2017-01-22, 14:52:04,VALID,919.57,VALID,0,INVALID,129.476,VALID,153.211,VALID,20.4634,VALID,138,VALID,1.78359,
2017-01-22, 14:53:04,VALID,919.574,VALID,0,INVALID,129.064,VALID,153.856,VALID,20.4829,VALID,146,VALID,2.40039,
2017-01-22, 14:54:04,VALID,919.585,VALID,0,INVALID,129.042,VALID,157.294,VALID,20.5609,VALID,166,VALID,1.66445,
2017-01-22, 14:55:04,VALID,919.615,VALID,0,INVALID,128.607,VALID,162.666,VALID,20.5594,VALID,161,VALID,1.37656,
2017-01-22, 14:56:04,VALID,919.648,VALID,0,INVALID,128.615,VALID,167.931,VALID,20.6585,VALID,141,VALID,1.18594,
2017-01-22, 14:57:04,VALID,919.674,VALID,0,INVALID,128.089,VALID,185.229,VALID,20.7185,VALID,153,VALID,1.88203,
2017-01-22, 14:58:04,VALID,919.743,VALID,0,INVALID,127.723,VALID,184.047,VALID,20.756,VALID,182,VALID,1.50273,
2017-01-22, 14:59:04,VALID,919.768,VALID,0,INVALID,127.029,VALID,174.592,VALID,20.8535,VALID,203,VALID,0.925391,
2017-01-22, 15:00:04,VALID,919.787,VALID,0,INVALID,127.258,VALID,176.311,VALID,20.9316,VALID,223,VALID,0.633594,
2017-01-22, 15:01:04,VALID,919.807,VALID,0,INVALID,126.861,VALID,178.352,VALID,20.969,VALID,195,VALID,0.474609,
2017-01-22, 15:02:04,VALID,919.833,VALID,0,INVALID,126.892,VALID,181.361,VALID,21.0876,VALID,199,VALID,0.249219,
2017-01-22, 15:03:04,VALID,919.852,VALID,0,INVALID,127.082,VALID,198.336,VALID,21.1657,VALID,215,VALID,0.795313,
2017-01-22, 15:04:04,VALID,919.854,VALID,0,INVALID,126.465,VALID,192.749,VALID,21.1836,VALID,187,VALID,0.423047,
2017-01-22, 15:05:04,VALID,919.875,VALID,0,INVALID,125.626,VALID,178.46,VALID,21.2827,VALID,152,VALID,0.439063,
2017-01-22, 15:06:04,VALID,919.898,VALID,0,INVALID,125.733,VALID,177.493,VALID,21.3998,VALID,152,VALID,0.243359,
2017-01-22, 15:07:04,VALID,919.88,VALID,0,INVALID,117.584,VALID,177.278,VALID,21.4193,VALID,152,VALID,1.71484,
2017-01-22, 15:08:04,VALID,919.893,VALID,0,VALID,104,VALID,179.427,VALID,21.4209,VALID,165,VALID,1.0832,
2017-01-22, 15:09:04,VALID,919.91,VALID,0,VALID,104,VALID,186.088,VALID,21.3022,VALID,140,VALID,2.01719,
2017-01-22, 15:10:04,VALID,919.952,VALID,0,INVALID,118.956,VALID,181.683,VALID,21.2421,VALID,140,VALID,1.85977,
2017-01-22, 15:11:04,VALID,919.982,VALID,0,INVALID,119.184,VALID,184.691,VALID,21.2242,VALID,147,VALID,1.17656,
2017-01-22, 15:12:04,VALID,919.995,VALID,0,INVALID,117.378,VALID,185.121,VALID,21.2047,VALID,142,VALID,1.5457,
2017-01-22, 15:13:04,VALID,919.986,VALID,0,INVALID,123.53,VALID,186.948,VALID,21.2437,VALID,147,VALID,1.15,
2017-01-22, 15:14:04,VALID,919.969,VALID,0,INVALID,124.513,VALID,190.923,VALID,21.2616,VALID,125,VALID,1.0293,
2017-01-22, 15:15:04,VALID,920.02,VALID,0,INVALID,125.718,VALID,195.221,VALID,21.3006,VALID,111,VALID,1.12227,
2017-01-22, 15:16:04,VALID,919.988,VALID,0,INVALID,125.367,VALID,200.915,VALID,21.3412,VALID,108,VALID,0.855859,
2017-01-22, 15:17:04,VALID,920.009,VALID,0,INVALID,125.138,VALID,204.89,VALID,21.3998,VALID,83,VALID,1.62812,
2017-01-22, 15:18:04,VALID,920.015,VALID,0,INVALID,124.551,VALID,210.585,VALID,21.4193,VALID,85,VALID,1.6125,
2017-01-22, 15:19:04,VALID,920.044,VALID,0,INVALID,120.839,VALID,217.891,VALID,21.3412,VALID,99,VALID,1.25234,
2017-01-22, 15:20:04,VALID,920.064,VALID,0,INVALID,122.173,VALID,231.751,VALID,21.2811,VALID,72,VALID,0.503516,
2017-01-22, 15:21:04,VALID,920.079,VALID,0,INVALID,125.306,VALID,229.172,VALID,21.3396,VALID,66,VALID,0,
2017-01-22, 15:22:04,VALID,920.095,VALID,0,INVALID,125.596,VALID,231.858,VALID,21.4762,VALID,66,VALID,0,
2017-01-22, 15:23:04,VALID,920.095,VALID,0,INVALID,125.1,VALID,243.677,VALID,21.5932,VALID,47,VALID,0,
2017-01-22, 15:24:04,VALID,920.123,VALID,0,INVALID,120.648,VALID,235.726,VALID,21.5916,VALID,85,VALID,0,
2017-01-22, 15:25:04,VALID,920.151,VALID,0,INVALID,117.401,VALID,235.511,VALID,21.5363,VALID,100,VALID,0,
2017-01-22, 15:26:04,VALID,920.152,VALID,0,INVALID,125.039,VALID,240.453,VALID,21.5737,VALID,117,VALID,0,
2017-01-22, 15:27:04,VALID,920.156,VALID,0,INVALID,122.127,VALID,224.337,VALID,21.6128,VALID,76,VALID,1.11758,
2017-01-22, 15:28:04,VALID,920.151,VALID,0,INVALID,120.038,VALID,218.75,VALID,21.6128,VALID,95,VALID,1.41953,
2017-01-22, 15:29:04,VALID,920.19,VALID,0,INVALID,121.289,VALID,208.328,VALID,21.6128,VALID,89,VALID,0.892187,
2017-01-22, 15:30:04,VALID,920.178,VALID,0,INVALID,125.085,VALID,201.989,VALID,21.6501,VALID,124,VALID,1.05664,
2017-01-22, 15:31:04,VALID,920.192,VALID,0,INVALID,118.902,VALID,198.444,VALID,21.6501,VALID,124,VALID,1.22227,
2017-01-22, 15:32:04,VALID,920.178,VALID,0,INVALID,120.519,VALID,197.477,VALID,21.7298,VALID,144,VALID,1.29961,
2017-01-22, 15:33:04,VALID,920.212,VALID,0,INVALID,113.002,VALID,198.659,VALID,21.7087,VALID,117,VALID,1.6043,
2017-01-22, 15:34:04,VALID,920.201,VALID,0,INVALID,118.819,VALID,201.13,VALID,21.6696,VALID,111,VALID,1.46523,
2017-01-22, 15:35:04,VALID,920.196,VALID,0,INVALID,123.431,VALID,204.998,VALID,21.7493,VALID,100,VALID,1.17188,
2017-01-22, 15:36:04,VALID,920.156,VALID,0,INVALID,124.681,VALID,211.659,VALID,21.7477,VALID,88,VALID,1.48164,
2017-01-22, 15:37:04,VALID,920.17,VALID,0,INVALID,124.094,VALID,227.775,VALID,21.7867,VALID,58,VALID,1.84609,
2017-01-22, 15:38:04,VALID,920.181,VALID,0,INVALID,122.806,VALID,212.089,VALID,21.8469,VALID,99,VALID,1.61758,
2017-01-22, 15:39:04,VALID,920.222,VALID,0,INVALID,117.782,VALID,214.023,VALID,21.8859,VALID,116,VALID,1.89922,
2017-01-22, 15:40:04,VALID,920.238,VALID,0,VALID,98.647,VALID,216.709,VALID,21.7688,VALID,122,VALID,1.76172,
2017-01-22, 15:41:04,VALID,920.249,VALID,0,VALID,104,VALID,225.626,VALID,21.6908,VALID,124,VALID,1.64766,
2017-01-22, 15:42:04,VALID,920.243,VALID,0,INVALID,116.753,VALID,219.287,VALID,21.751,VALID,134,VALID,1.5832,
2017-01-22, 15:43:04,VALID,920.231,VALID,0,INVALID,112.918,VALID,225.519,VALID,21.7688,VALID,131,VALID,1.67148,
2017-01-22, 15:44:04,VALID,920.269,VALID,0,INVALID,117.965,VALID,227.131,VALID,21.8274,VALID,129,VALID,1.19727,
2017-01-22, 15:45:04,VALID,920.247,VALID,0,VALID,104,VALID,230.246,VALID,21.8257,VALID,109,VALID,1.28984,
2017-01-22, 15:46:04,VALID,920.288,VALID,0,INVALID,110.806,VALID,229.279,VALID,21.8859,VALID,124,VALID,1.31172,
2017-01-22, 15:47:04,VALID,920.296,VALID,0,VALID,101.186,VALID,230.784,VALID,21.9428,VALID,125,VALID,0.747656,
2017-01-22, 15:48:04,VALID,920.348,VALID,0,VALID,97.3358,VALID,236.371,VALID,22.0013,VALID,120,VALID,1.43828,
2017-01-22, 15:49:04,VALID,920.337,VALID,0,VALID,102.329,VALID,244.966,VALID,22.1005,VALID,90,VALID,0.942969,
2017-01-22, 15:50:04,VALID,920.306,VALID,0,VALID,92.5635,VALID,247.007,VALID,22.2176,VALID,146,VALID,1.81641,
2017-01-22, 15:51:04,VALID,920.331,VALID,0,VALID,88.1267,VALID,251.305,VALID,22.255,VALID,138,VALID,1.61367,
2017-01-22, 15:52:04,VALID,920.314,VALID,0,VALID,86.5258,VALID,260.222,VALID,22.3916,VALID,143,VALID,1.1582,
2017-01-22, 15:53:04,VALID,920.317,VALID,0,VALID,87.9209,VALID,262.371,VALID,22.4696,VALID,173,VALID,1.09961,
2017-01-22, 15:54:04,VALID,920.314,VALID,0,VALID,86.5182,VALID,259.47,VALID,22.5672,VALID,115,VALID,1.51133,
2017-01-22, 15:55:04,VALID,920.316,VALID,0,VALID,83.0952,VALID,270.429,VALID,22.5477,VALID,100,VALID,1.41758,
2017-01-22, 15:56:04,VALID,920.32,VALID,0,VALID,84.2006,VALID,263.553,VALID,22.5477,VALID,108,VALID,1.11563,
2017-01-22, 15:57:04,VALID,920.314,VALID,0,VALID,85.8473,VALID,263.661,VALID,22.5867,VALID,117,VALID,0.881641,
2017-01-22, 15:58:04,VALID,920.306,VALID,0,VALID,85.2145,VALID,272.256,VALID,22.6257,VALID,114,VALID,1.41289,
2017-01-22, 15:59:04,VALID,920.309,VALID,0,VALID,87.4863,VALID,259.041,VALID,22.6647,VALID,162,VALID,1.03398,
2017-01-22, 16:00:04,VALID,920.307,VALID,0,VALID,86.1598,VALID,256.247,VALID,22.7233,VALID,160,VALID,0.838672,
2017-01-22, 16:01:04,VALID,920.308,VALID,0,VALID,84.9401,VALID,258.181,VALID,22.8014,VALID,165,VALID,1.14453,
2017-01-22, 16:02:04,VALID,920.329,VALID,0,VALID,84.254,VALID,260.33,VALID,22.8404,VALID,136,VALID,0.910156,
2017-01-22, 16:03:04,VALID,920.314,VALID,0,VALID,83.8576,VALID,259.47,VALID,22.938,VALID,133,VALID,0.532422,
2017-01-22, 16:04:04,VALID,920.364,VALID,0,VALID,83.6517,VALID,264.52,VALID,22.9575,VALID,134,VALID,1.39492,
2017-01-22, 16:05:04,VALID,920.379,VALID,0,VALID,83.9109,VALID,322.753,VALID,22.9557,VALID,154,VALID,0.443359,
2017-01-22, 16:06:04,VALID,920.398,VALID,0,VALID,83.7966,VALID,264.09,VALID,23.0533,VALID,174,VALID,0,
2017-01-22, 16:07:04,VALID,920.368,VALID,0,VALID,84.9858,VALID,339.729,VALID,23.1722,VALID,41,VALID,1.96094,
2017-01-22, 16:08:04,VALID,920.374,VALID,0,VALID,82.3253,VALID,329.307,VALID,23.2307,VALID,50,VALID,0.601953,
2017-01-22, 16:09:04,VALID,920.382,VALID,0,VALID,82.2338,VALID,301.158,VALID,23.2875,VALID,51,VALID,0.253906,
2017-01-22, 16:10:04,VALID,920.387,VALID,0,VALID,81.784,VALID,316.522,VALID,23.4437,VALID,51,VALID,0,
2017-01-22, 16:11:04,VALID,920.388,VALID,0,VALID,79.9849,VALID,296.752,VALID,23.504,VALID,82,VALID,0,
2017-01-22, 16:12:04,VALID,920.416,VALID,0,VALID,81.0217,VALID,302.984,VALID,23.465,VALID,88,VALID,0,
2017-01-22, 16:13:04,VALID,920.406,VALID,0,VALID,79.9086,VALID,285.256,VALID,23.5821,VALID,85,VALID,0,
2017-01-22, 16:14:04,VALID,920.418,VALID,0,VALID,79.2073,VALID,277.521,VALID,23.7382,VALID,86,VALID,0,
2017-01-22, 16:15:04,VALID,920.418,VALID,0,VALID,78.3763,VALID,288.479,VALID,23.7986,VALID,85,VALID,0,
2017-01-22, 16:16:04,VALID,920.401,VALID,0,VALID,77.8961,VALID,309.001,VALID,23.8944,VALID,86,VALID,0,
2017-01-22, 16:17:04,VALID,920.41,VALID,0,VALID,77.3853,VALID,317.811,VALID,23.9139,VALID,54,VALID,0,
2017-01-22, 16:18:04,VALID,920.385,VALID,0,VALID,78.2696,VALID,296.752,VALID,23.8944,VALID,6,VALID,0,
2017-01-22, 16:19:04,VALID,920.427,VALID,0,VALID,79.1006,VALID,297.505,VALID,23.9335,VALID,11,VALID,0,
2017-01-22, 16:20:04,VALID,920.396,VALID,0,VALID,79.1006,VALID,311.472,VALID,23.9725,VALID,25,VALID,0,
2017-01-22, 16:21:04,VALID,920.373,VALID,0,VALID,79.3598,VALID,315.662,VALID,24.0311,VALID,19,VALID,0,
2017-01-22, 16:22:04,VALID,920.395,VALID,0,VALID,78.3535,VALID,314.05,VALID,24.1482,VALID,328,VALID,0,
2017-01-22, 16:23:04,VALID,920.382,VALID,0,VALID,76.9889,VALID,316.199,VALID,23.9725,VALID,303,VALID,0,
2017-01-22, 16:24:04,VALID,920.397,VALID,0,VALID,78.4831,VALID,466.939,VALID,23.7187,VALID,296,VALID,0,
2017-01-22, 16:25:04,VALID,920.36,VALID,0,VALID,79.314,VALID,323.183,VALID,23.6992,VALID,296,VALID,0,
2017-01-22, 16:26:04,VALID,920.363,VALID,0,VALID,79.2378,VALID,314.588,VALID,23.6992,VALID,296,VALID,0,
2017-01-22, 16:27:04,VALID,920.362,VALID,0,VALID,80.084,VALID,307.711,VALID,23.5998,VALID,296,VALID,0,
2017-01-22, 16:28:04,VALID,920.353,VALID,0,VALID,81.4333,VALID,302.877,VALID,23.6193,VALID,327,VALID,0,
2017-01-22, 16:29:04,VALID,920.35,VALID,0,VALID,81.784,VALID,300.835,VALID,23.7364,VALID,346,VALID,0,
2017-01-22, 16:30:04,VALID,920.357,VALID,0,VALID,80.5414,VALID,310.183,VALID,23.795,VALID,272,VALID,0,
2017-01-22, 16:31:04,VALID,920.382,VALID,0,VALID,81.0903,VALID,319.315,VALID,23.7169,VALID,249,VALID,1.00586,
2017-01-22, 16:32:04,VALID,920.384,VALID,0,VALID,80.8844,VALID,326.729,VALID,23.5821,VALID,235,VALID,0.901172,
2017-01-22, 16:33:04,VALID,920.386,VALID,0,VALID,82.0813,VALID,335.968,VALID,23.5998,VALID,222,VALID,0.059375,
2017-01-22, 16:34:04,VALID,920.397,VALID,0,VALID,78.849,VALID,359.176,VALID,23.7169,VALID,214,VALID,0,
2017-01-22, 16:35:04,VALID,920.374,VALID,0,VALID,79.375,VALID,404.086,VALID,23.795,VALID,245,VALID,0,
2017-01-22, 16:36:04,VALID,920.388,VALID,0,VALID,77.9799,VALID,405.698,VALID,23.7364,VALID,253,VALID,0,
2017-01-22, 16:37:04,VALID,920.37,VALID,0,VALID,79.1539,VALID,471.344,VALID,23.6388,VALID,253,VALID,0,
2017-01-22, 16:38:04,VALID,920.374,VALID,0,VALID,80.3432,VALID,343.382,VALID,23.7364,VALID,253,VALID,0,
2017-01-22, 16:39:04,VALID,920.378,VALID,0,VALID,79.4894,VALID,355.63,VALID,23.7755,VALID,229,VALID,0,
2017-01-22, 16:40:04,VALID,920.367,VALID,0,VALID,77.9189,VALID,474.675,VALID,23.8731,VALID,226,VALID,0,
2017-01-22, 16:41:04,VALID,920.365,VALID,0,VALID,78.2391,VALID,445.666,VALID,24.0878,VALID,162,VALID,0,
2017-01-22, 16:42:04,VALID,920.395,VALID,0,VALID,75.1898,VALID,573.736,VALID,24.1269,VALID,140,VALID,0,
2017-01-22, 16:43:04,VALID,920.397,VALID,0,VALID,74.9001,VALID,680.102,VALID,24.1269,VALID,119,VALID,0,
2017-01-22, 16:44:04,VALID,920.366,VALID,0,VALID,74.9153,VALID,474.89,VALID,24.2421,VALID,194,VALID,1.075,
2017-01-22, 16:45:04,VALID,920.369,VALID,0,VALID,73.8404,VALID,328.125,VALID,24.4587,VALID,192,VALID,0.742578,
2017-01-22, 16:46:04,VALID,920.37,VALID,0,VALID,75.1135,VALID,321.142,VALID,24.6149,VALID,191,VALID,0,
2017-01-22, 16:47:04,VALID,920.331,VALID,0,VALID,74.8848,VALID,384.962,VALID,24.6893,VALID,311,VALID,0,
2017-01-22, 16:48:04,VALID,920.315,VALID,0,VALID,73.9319,VALID,350.258,VALID,24.8278,VALID,198,VALID,0.127734,
2017-01-22, 16:49:04,VALID,920.33,VALID,0,VALID,72.7808,VALID,300.62,VALID,24.8492,VALID,174,VALID,0,
2017-01-22, 16:50:04,VALID,920.318,VALID,0,VALID,74.3207,VALID,331.241,VALID,24.8083,VALID,202,VALID,0,
2017-01-22, 16:51:04,VALID,920.347,VALID,0,VALID,73.5355,VALID,372.713,VALID,24.8492,VALID,183,VALID,0.835156,
2017-01-22, 16:52:04,VALID,920.342,VALID,0,VALID,75.2507,VALID,431.699,VALID,24.8297,VALID,117,VALID,1.81289,
2017-01-22, 16:53:04,VALID,920.368,VALID,0,VALID,72.6588,VALID,432.558,VALID,24.654,VALID,125,VALID,2.36172,
2017-01-22, 16:54:04,VALID,920.391,VALID,0,VALID,74.2673,VALID,503.254,VALID,24.4178,VALID,137,VALID,2.2207,
2017-01-22, 16:55:04,VALID,920.367,VALID,0,VALID,74.0234,VALID,437.178,VALID,24.3007,VALID,123,VALID,1.90469,
2017-01-22, 16:56:04,VALID,920.352,VALID,0,VALID,76.6382,VALID,379.267,VALID,24.2617,VALID,129,VALID,1.36016,
2017-01-22, 16:57:04,VALID,920.321,VALID,0,VALID,77.7512,VALID,344.241,VALID,24.3983,VALID,121,VALID,1.89766,
2017-01-22, 16:58:04,VALID,920.317,VALID,0,VALID,74.8924,VALID,312.224,VALID,24.4392,VALID,110,VALID,2.56289,
2017-01-22, 16:59:04,VALID,920.358,VALID,0,VALID,76.9584,VALID,323.183,VALID,24.2421,VALID,158,VALID,2.13164,
2017-01-22, 17:00:04,VALID,920.34,VALID,0,VALID,76.5467,VALID,329.952,VALID,24.2031,VALID,150,VALID,2.85352,
2017-01-22, 17:01:04,VALID,920.324,VALID,0,VALID,77.8351,VALID,322.431,VALID,24.125,VALID,157,VALID,1.02969,
2017-01-22, 17:02:04,VALID,920.337,VALID,0,VALID,77.5301,VALID,381.846,VALID,24.2421,VALID,9,VALID,0.0121094,
2017-01-22, 17:03:04,VALID,920.337,VALID,0,VALID,78.7804,VALID,413.111,VALID,24.3983,VALID,119,VALID,0.00117188,
2017-01-22, 17:04:04,VALID,920.325,VALID,0,VALID,78.0409,VALID,414.401,VALID,24.6149,VALID,95,VALID,0.859375,
2017-01-22, 17:05:04,VALID,920.292,VALID,0,VALID,75.8835,VALID,420.632,VALID,24.945,VALID,8,VALID,0,
2017-01-22, 17:06:04,VALID,920.304,VALID,0,VALID,75.5938,VALID,421.599,VALID,25.2574,VALID,52,VALID,0.0917969,
2017-01-22, 17:07:04,VALID,920.312,VALID,0,VALID,72.7121,VALID,410.64,VALID,25.2769,VALID,79,VALID,1.22344,
2017-01-22, 17:08:04,VALID,920.282,VALID,0,VALID,71.5381,VALID,411.715,VALID,25.316,VALID,94,VALID,0.472656,
2017-01-22, 17:09:04,VALID,920.314,VALID,0,VALID,71.7135,VALID,356.382,VALID,25.3355,VALID,186,VALID,2.27734,
2017-01-22, 17:10:04,VALID,920.27,VALID,0,VALID,71.0502,VALID,337.258,VALID,25.5113,VALID,150,VALID,1.03906,
2017-01-22, 17:11:04,VALID,920.282,VALID,0,VALID,71.4695,VALID,336.935,VALID,25.8042,VALID,82,VALID,0.735547,
2017-01-22, 17:12:04,VALID,920.269,VALID,0,VALID,69.5256,VALID,356.812,VALID,25.8608,VALID,109,VALID,4.05742,
2017-01-22, 17:13:04,VALID,920.264,VALID,0,VALID,71.7897,VALID,397.103,VALID,25.8022,VALID,124,VALID,2.10078,
2017-01-22, 17:14:04,VALID,920.294,VALID,0,VALID,68.7251,VALID,420.202,VALID,25.8823,VALID,147,VALID,2.19609,
2017-01-22, 17:15:04,VALID,920.305,VALID,0,VALID,67.391,VALID,371.854,VALID,25.5698,VALID,127,VALID,2.89805,
2017-01-22, 17:16:04,VALID,920.318,VALID,0,VALID,68.5193,VALID,354.341,VALID,25.316,VALID,173,VALID,3.13477,
2017-01-22, 17:17:04,VALID,920.232,VALID,0,VALID,68.8394,VALID,328.985,VALID,25.2555,VALID,177,VALID,1.00547,
2017-01-22, 17:18:04,VALID,920.222,VALID,0,VALID,70.1735,VALID,312.654,VALID,25.2945,VALID,104,VALID,2.40195,
2017-01-22, 17:19:04,VALID,920.153,VALID,0,VALID,70.265,VALID,346.175,VALID,25.1188,VALID,84,VALID,2.76016,
2017-01-22, 17:20:04,VALID,920.174,VALID,0,VALID,72.1404,VALID,321.356,VALID,24.9821,VALID,140,VALID,2.26289,
2017-01-22, 17:21:04,VALID,920.131,VALID,0,VALID,71.1417,VALID,302.984,VALID,24.984,VALID,120,VALID,2.34766,
2017-01-22, 17:22:04,VALID,920.07,VALID,0,VALID,70.4251,VALID,406.557,VALID,24.8259,VALID,124,VALID,1.75312,
2017-01-22, 17:23:04,VALID,920.081,VALID,0,VALID,71.3323,VALID,867.05,VALID,24.7283,VALID,119,VALID,1.68047,
2017-01-22, 17:24:04,VALID,920.076,VALID,0,VALID,71.9955,VALID,523.99,VALID,24.8045,VALID,108,VALID,2.10352,
2017-01-22, 17:25:04,VALID,920.054,VALID,0,VALID,71.8354,VALID,865.009,VALID,24.9255,VALID,112,VALID,1.48398,
2017-01-22, 17:26:04,VALID,920.044,VALID,0,VALID,70.3565,VALID,850.612,VALID,25.1207,VALID,89,VALID,1.0293,
2017-01-22, 17:27:04,VALID,920.061,VALID,0,VALID,69.8839,VALID,287.513,VALID,25.2769,VALID,135,VALID,3.68555,
2017-01-22, 17:28:04,VALID,920.065,VALID,0,VALID,70.1812,VALID,296,VALID,25.0993,VALID,159,VALID,1.97852,
2017-01-22, 17:29:04,VALID,920.022,VALID,0,VALID,70.4022,VALID,580.934,VALID,25.0212,VALID,146,VALID,1.50273,
2017-01-22, 17:30:04,VALID,920.009,VALID,0,VALID,74.3131,VALID,800.437,VALID,25.2574,VALID,118,VALID,1.81133,
2017-01-22, 17:31:04,VALID,920.042,VALID,0,VALID,67.3757,VALID,928.292,VALID,25.6675,VALID,140,VALID,3.21367,
2017-01-22, 17:32:04,VALID,919.956,VALID,0,VALID,67.4596,VALID,954.722,VALID,25.5484,VALID,161,VALID,1.67344,
2017-01-22, 17:33:04,VALID,919.967,VALID,0,VALID,70.6233,VALID,697.723,VALID,25.7241,VALID,127,VALID,2.57148,
2017-01-22, 17:34:04,VALID,919.931,VALID,0,VALID,67.8332,VALID,374.54,VALID,25.8804,VALID,44,VALID,1.76055,
2017-01-22, 17:35:04,VALID,919.971,VALID,0,VALID,68.2219,VALID,426.864,VALID,25.8433,VALID,28,VALID,2.5832,
2017-01-22, 17:36:04,VALID,919.96,VALID,0,VALID,69.1291,VALID,332.315,VALID,25.6675,VALID,70,VALID,2.0043,
2017-01-22, 17:37:04,VALID,919.939,VALID,0,VALID,65.7901,VALID,280.636,VALID,25.5093,VALID,62,VALID,2.80977,
2017-01-22, 17:38:04,VALID,919.958,VALID,0,VALID,67.4749,VALID,263.338,VALID,25.2379,VALID,5,VALID,1.62031,
2017-01-22, 17:39:04,VALID,919.917,VALID,0,VALID,70.4022,VALID,263.231,VALID,25.1012,VALID,35,VALID,2.25898,
2017-01-22, 17:40:04,VALID,919.932,VALID,0,VALID,69.6094,VALID,255.71,VALID,24.9821,VALID,75,VALID,0.288281,
2017-01-22, 17:41:04,VALID,919.861,VALID,0,VALID,72.0718,VALID,252.702,VALID,24.945,VALID,10,VALID,0.00429688,
2017-01-22, 17:42:04,VALID,919.848,VALID,0,VALID,70.0211,VALID,240.991,VALID,24.9255,VALID,29,VALID,3.73984,
2017-01-22, 17:43:04,VALID,919.841,VALID,0,VALID,72.4911,VALID,232.932,VALID,24.8278,VALID,327,VALID,0.617578,
2017-01-22, 17:44:04,VALID,919.838,VALID,0,VALID,71.3933,VALID,241.85,VALID,24.8278,VALID,57,VALID,2.09922,
2017-01-22, 17:45:04,VALID,919.835,VALID,0,VALID,70.5242,VALID,279.992,VALID,25.0017,VALID,15,VALID,1.63047,
2017-01-22, 17:46:04,VALID,919.847,VALID,0,VALID,71.0426,VALID,206.394,VALID,25.0621,VALID,21,VALID,1.64492,
2017-01-22, 17:47:04,VALID,919.851,VALID,0,VALID,71.5381,VALID,202.419,VALID,25.0017,VALID,39,VALID,2.24805,
2017-01-22, 17:48:04,VALID,919.834,VALID,0,VALID,72.6054,VALID,196.617,VALID,24.8864,VALID,127,VALID,0.233594,
2017-01-22, 17:49:04,VALID,919.829,VALID,0,VALID,73.1619,VALID,189.204,VALID,24.9059,VALID,360,VALID,1.15078,
2017-01-22, 17:50:04,VALID,919.812,VALID,0,VALID,72.1328,VALID,182.65,VALID,24.904,VALID,17,VALID,0.953125,
2017-01-22, 17:51:04,VALID,919.804,VALID,0,VALID,71.805,VALID,178.567,VALID,24.8864,VALID,39,VALID,0.428906,
2017-01-22, 17:52:04,VALID,919.793,VALID,0,VALID,73.0247,VALID,177.063,VALID,24.8864,VALID,1,VALID,0,
2017-01-22, 17:53:04,VALID,919.794,VALID,0,VALID,72.5063,VALID,178.46,VALID,24.9645,VALID,27,VALID,0,
2017-01-22, 17:54:04,VALID,919.795,VALID,0,VALID,72.6969,VALID,183.939,VALID,24.9255,VALID,43,VALID,0,
2017-01-22, 17:55:04,VALID,919.768,VALID,0,VALID,73.0552,VALID,189.204,VALID,24.904,VALID,58,VALID,0,
2017-01-22, 17:56:04,VALID,919.798,VALID,0,VALID,74.0767,VALID,183.939,VALID,25.0017,VALID,49,VALID,1.31289,
2017-01-22, 17:57:04,VALID,919.795,VALID,0,VALID,74.5189,VALID,182.328,VALID,25.1383,VALID,50,VALID,0.0820313,
2017-01-22, 17:58:04,VALID,919.774,VALID,0,VALID,74.374,VALID,184.906,VALID,25.2164,VALID,4,VALID,0.00429688,
2017-01-22, 17:59:04,VALID,919.819,VALID,0,VALID,72.2624,VALID,193.931,VALID,25.2379,VALID,340,VALID,0,
2017-01-22, 18:00:04,VALID,919.795,VALID,0,VALID,71.3247,VALID,201.345,VALID,25.2164,VALID,15,VALID,0,
2017-01-22, 18:01:04,VALID,919.815,VALID,0,VALID,71.7821,VALID,199.841,VALID,25.1383,VALID,13,VALID,0,
2017-01-22, 18:02:04,VALID,919.859,VALID,0,VALID,73.0018,VALID,187.27,VALID,25.1188,VALID,22,VALID,0,
2017-01-22, 18:03:04,VALID,919.832,VALID,0,VALID,72.6588,VALID,173.195,VALID,25.1598,VALID,34,VALID,0,
2017-01-22, 18:04:04,VALID,919.85,VALID,0,VALID,72.8722,VALID,159.98,VALID,25.1793,VALID,51,VALID,0,
2017-01-22, 18:05:04,VALID,919.812,VALID,0,VALID,74.2826,VALID,149.343,VALID,25.0426,VALID,66,VALID,0,
2017-01-22, 18:06:04,VALID,919.828,VALID,0,VALID,71.5,VALID,141.5,VALID,24.9059,VALID,78,VALID,0,
2017-01-22, 18:09:04,VALID,919.81,VALID,0,VALID,70.57,VALID,135.591,VALID,24.6521,VALID,63,VALID,0,
2017-01-22, 18:10:04,VALID,919.777,VALID,0,VALID,71.0502,VALID,140.211,VALID,24.5935,VALID,37,VALID,1.21523,
2017-01-22, 18:11:04,VALID,919.785,VALID,0,VALID,71.1798,VALID,147.732,VALID,24.5935,VALID,24,VALID,1.33672,
2017-01-22, 18:12:04,VALID,919.79,VALID,0,VALID,72.5902,VALID,156.542,VALID,24.6912,VALID,54,VALID,0.0976563,
2017-01-22, 18:13:04,VALID,919.792,VALID,0,VALID,73.7642,VALID,166.749,VALID,24.7107,VALID,55,VALID,0.575391,
2017-01-22, 18:14:04,VALID,919.761,VALID,0,VALID,71.8126,VALID,339.514,VALID,24.6716,VALID,63,VALID,1.24961,
2017-01-22, 18:15:04,VALID,919.784,VALID,0,VALID,70.2727,VALID,207.147,VALID,24.6345,VALID,72,VALID,0.408594,
2017-01-22, 18:16:04,VALID,919.758,VALID,0,VALID,69.9525,VALID,167.501,VALID,24.5917,VALID,94,VALID,0,
2017-01-22, 18:17:04,VALID,919.749,VALID,0,VALID,70.4861,VALID,163.096,VALID,24.5545,VALID,53,VALID,0,
2017-01-22, 18:18:04,VALID,919.72,VALID,0,VALID,70.1812,VALID,162.236,VALID,24.535,VALID,45,VALID,1.11211,
2017-01-22, 18:19:04,VALID,919.689,VALID,0,VALID,71.8583,VALID,161.914,VALID,24.5155,VALID,43,VALID,0,